Weather History for Wolf Point, MT

Change the Weather History Date:

Sunday, December 9, 2012

  Actual Average Record
Temperature  
Mean Temperature 4 °F -  
Max Temperature 14 °F 28 °F 45 °F (2001)
Min Temperature -6 °F 5 °F -24 °F (2013)
Degree Days  
Heating Degree Days 61    
Cooling Degree Days 0    
Moisture  
Dew Point -2 °F    
Average Humidity 83    
Maximum Humidity 92    
Minimum Humidity 73    
Precipitation  
Precipitation T in 0.00 in 0.01 in (2005)
Month to date precipitation 0.03 0.08  
Year to date precipitation 10.18 11.96  
Sea Level Pressure  
Sea Level Pressure 30.36 in    
Wind  
Wind Speed 1 mph (WSW)    
Max Wind Speed 6 mph    
Max Gust Speed -    
Visibility 6 miles    
Events Fog , Snow    
T = Trace of Precipitation, MM = Missing Value Source: NWS Daily Summary

Daily Weather History Graph

Daily Weather History Graph

Search for Another Location

Airport:

Trip Planner

Search our weather history database for the weather conditions in past years. The results will help you decide how hot, cold, wet, or windy it might be!

Date:

Astronomy

Dec. 09, 2012 Rise Set
Actual Time 7:41 AM MST 4:08 PM MST
Civil Twilight 7:04 AM MST 4:44 PM MST
Nautical Twilight 6:25 AM MST 5:24 PM MST
Astronomical Twilight 5:47 AM MST 6:02 PM MST
Moon 3:02 AM MST (12/9) 1:29 PM MST (12/9)
Length of Visible Light 9h 40m
Length of Day
8h 27m
Waning Crescent, 18% of the Moon is Illuminated
Dec 9
Waning Crescent
Dec 13
New
Dec 19
First Quarter
Dec 28
Full
Jan 4
Last Quarter

Hourly Weather History & Observations

Time (MST) Temp. Windchill Dew Point Humidity Pressure Visibility Wind Dir Wind Speed Gust Speed Precip Events Conditions
12:09 AM -4.0 °F - -7.6 °F 85% 30.35 in 1.8 mi Calm Calm - N/A   Clear
12:20 AM -5.8 °F - -7.6 °F 92% 30.36 in 4.0 mi Calm Calm - N/A   Clear
12:23 AM -5.8 °F -14.5 °F -7.6 °F 92% 30.36 in 2.5 mi WSW 3.5 mph - N/A   Partly Cloudy
12:26 AM -5.8 °F - -9.4 °F 84% 30.36 in 1.0 mi Calm Calm - N/A   Mist
12:32 AM -2.2 °F - -5.8 °F 85% 30.36 in 0.5 mi Calm Calm - N/A Fog Light Freezing Fog
12:53 AM -5.1 °F - -9.9 °F 80% 30.51 in 1.5 mi Calm Calm - N/A   Haze
1:02 AM -5.8 °F - -9.4 °F 84% 30.36 in 3.0 mi Calm Calm - N/A   Mostly Cloudy
1:08 AM -5.8 °F -16.7 °F -9.4 °F 84% 30.36 in 1.0 mi South 4.6 mph - N/A   Mostly Cloudy
1:15 AM -4.0 °F -12.4 °F -5.8 °F 92% 30.36 in 0.2 mi South 3.5 mph - N/A Fog Light Freezing Fog
1:23 AM -2.2 °F - -7.6 °F 78% 30.37 in 3.0 mi Calm Calm - N/A   Overcast
1:53 AM -2.9 °F - -7.1 °F 82% 30.52 in 10.0 mi Calm Calm - N/A   Overcast
2:53 AM 1.9 °F -7.6 °F -2.9 °F 80% 30.53 in 10.0 mi West 4.6 mph - N/A   Overcast
3:53 AM 1.9 °F -7.6 °F -2.0 °F 83% 30.53 in 10.0 mi SW 4.6 mph - N/A   Overcast
4:53 AM 3.0 °F - -0.9 °F 84% 30.54 in 10.0 mi Calm Calm - N/A   Overcast
5:53 AM 1.0 °F - -2.9 °F 83% 30.55 in 10.0 mi Calm Calm - N/A   Overcast
6:53 AM -0.0 °F - -4.0 °F 83% 30.56 in 10.0 mi Calm Calm - N/A   Overcast
7:53 AM 1.0 °F - -2.9 °F 83% 30.56 in 4.0 mi Calm Calm - 0.00 in Snow Light Snow
8:32 AM 3.2 °F - -0.4 °F 85% 30.40 in 2.0 mi Calm Calm - 0.00 in Snow Light Snow
8:39 AM 3.2 °F - 1.4 °F 92% 30.40 in 1.8 mi Calm Calm - 0.00 in Snow Light Snow
8:53 AM 5.0 °F - 1.0 °F 84% 30.55 in 1.8 mi Calm Calm - 0.00 in Snow Light Snow
9:09 AM 6.8 °F -0.1 °F 3.2 °F 85% 30.39 in 2.0 mi SW 3.5 mph - 0.00 in Snow Light Snow
9:26 AM 6.8 °F -0.1 °F 3.2 °F 85% 30.39 in 1.5 mi SSW 3.5 mph - 0.00 in Snow Light Snow
9:39 AM 8.6 °F 2.0 °F 5.0 °F 85% 30.38 in 3.0 mi SSW 3.5 mph - 0.00 in Snow Light Snow
9:53 AM 9.0 °F 2.4 °F 5.0 °F 84% 30.53 in 6.0 mi SSW 3.5 mph - 0.00 in   Overcast
10:53 AM 9.0 °F - 3.0 °F 77% 30.51 in 10.0 mi Calm Calm - N/A   Clear
11:24 AM 10.4 °F - 3.2 °F 73% 30.33 in 8.0 mi Calm Calm - N/A   Mostly Cloudy
11:39 AM 10.4 °F - 3.2 °F 73% 30.32 in 10.0 mi Calm Calm - N/A   Scattered Clouds
11:53 AM 10.0 °F - 3.9 °F 76% 30.47 in 10.0 mi Calm Calm - N/A   Clear
12:53 PM 10.9 °F 2.9 °F 5.0 °F 77% 30.42 in 10.0 mi SW 4.6 mph - N/A   Clear
1:53 PM 10.9 °F - 3.9 °F 73% 30.38 in 10.0 mi Calm Calm - N/A   Clear
2:53 PM 10.0 °F - 3.9 °F 76% 30.32 in 10.0 mi Calm Calm - N/A   Clear
3:53 PM 6.1 °F -0.9 °F -0.0 °F 76% 30.30 in 10.0 mi NNE 3.5 mph - N/A   Clear
4:53 PM -0.9 °F -11.0 °F -4.0 °F 87% 30.26 in 10.0 mi NNE 4.6 mph - N/A   Clear
5:53 PM -4.0 °F -12.4 °F -7.1 °F 87% 30.22 in 10.0 mi NNE 3.5 mph - N/A   Clear
6:53 PM 1.0 °F -8.7 °F -2.9 °F 83% 30.16 in 10.0 mi NNE 4.6 mph - N/A   Clear
7:53 PM -0.9 °F -11.0 °F -5.1 °F 83% 30.13 in 10.0 mi NNE 4.6 mph - N/A   Clear
8:53 PM -0.0 °F -9.9 °F -4.0 °F 83% 30.07 in 10.0 mi NNE 4.6 mph - N/A   Clear
9:53 PM 1.0 °F -10.3 °F -2.9 °F 83% 30.01 in 10.0 mi NNE 5.8 mph - N/A   Partly Cloudy
10:53 PM 1.9 °F - -2.0 °F 83% 29.97 in 10.0 mi Calm Calm - N/A   Overcast
11:53 PM 5.0 °F - 1.0 °F 84% 29.93 in 10.0 mi Calm Calm - N/A   Overcast